Time,TemperatureF,DewpointF,PressureIn,WindDirection,WindDirectionDegrees,WindSpeedMPH,WindSpeedGustMPH,Humidity,HourlyPrecipIn,Conditions,Clouds,dailyrainin,SoftwareType,DateUTC
2013-07-25 00:02:00,78.0,78.0,29.92,WNW,295,3.0,5.0,100,99.99,,,-99.99,,2013-07-25 04:02:00,
2013-07-25 00:43:00,78.0,78.0,29.92,West,267,3.0,6.0,100,99.99,,,-99.99,,2013-07-25 04:43:00,
2013-07-25 01:02:00,78.0,78.0,29.92,West,260,2.0,4.0,100,99.99,,,-99.99,,2013-07-25 05:02:00,
2013-07-25 01:43:00,78.0,78.0,29.91,West,277,1.0,2.0,100,99.99,,,-99.99,,2013-07-25 05:43:00,
2013-07-25 01:52:00,77.0,77.0,29.91,WNW,283,2.0,4.0,100,99.99,,,-99.99,,2013-07-25 05:52:00,
2013-07-25 02:32:00,77.0,77.0,29.90,SW,231,1.0,3.0,100,99.99,,,-99.99,,2013-07-25 06:32:00,
2013-07-25 02:42:00,77.0,77.0,29.89,West,264,2.0,6.0,100,99.99,,,-99.99,,2013-07-25 06:42:00,
2013-07-25 02:52:00,77.0,77.0,29.89,WSW,257,2.0,4.0,100,99.99,,,-99.99,,2013-07-25 06:52:00,
2013-07-25 03:02:00,77.0,77.0,29.89,WNW,284,2.0,3.0,100,99.99,,,-99.99,,2013-07-25 07:02:00,
2013-07-25 03:12:00,77.0,77.0,29.89,WSW,248,2.0,6.0,100,99.99,,,-99.99,,2013-07-25 07:12:00,
2013-07-25 03:22:00,77.0,77.0,29.89,WSW,246,2.0,4.0,100,99.99,,,-99.99,,2013-07-25 07:22:00,
2013-07-25 03:33:00,77.0,77.0,29.88,WSW,256,0.0,2.0,100,99.99,,,-99.99,,2013-07-25 07:33:00,
2013-07-25 03:43:00,77.0,77.0,29.89,WSW,252,1.0,4.0,100,99.99,,,-99.99,,2013-07-25 07:43:00,
2013-07-25 03:53:00,77.0,77.0,29.89,WSW,239,2.0,4.0,100,99.99,,,-99.99,,2013-07-25 07:53:00,
2013-07-25 04:02:00,77.0,77.0,29.88,WSW,248,2.0,4.0,100,99.99,,,-99.99,,2013-07-25 08:02:00,
2013-07-25 04:12:00,77.0,77.0,29.89,WSW,248,2.0,5.0,100,99.99,,,-99.99,,2013-07-25 08:12:00,
2013-07-25 04:22:00,77.0,77.0,29.89,WSW,253,1.0,4.0,100,99.99,,,-99.99,,2013-07-25 08:22:00,
2013-07-25 04:52:00,77.0,77.0,29.88,WSW,253,1.0,3.0,100,99.99,,,-99.99,,2013-07-25 08:52:00,
2013-07-25 05:02:00,77.0,77.0,29.88,West,262,1.0,4.0,100,99.99,,,-99.99,,2013-07-25 09:02:00,
2013-07-25 05:12:00,77.0,77.0,29.88,WSW,239,1.0,3.0,100,99.99,,,-99.99,,2013-07-25 09:12:00,
2013-07-25 05:22:00,77.0,77.0,29.88,West,266,1.0,4.0,100,99.99,,,-99.99,,2013-07-25 09:22:00,
2013-07-25 05:43:00,77.0,77.0,29.88,WSW,248,1.0,4.0,100,99.99,,,-99.99,,2013-07-25 09:43:00,
2013-07-25 05:52:00,77.0,77.0,29.89,West,278,3.0,5.0,100,99.99,,,-99.99,,2013-07-25 09:52:00,
2013-07-25 06:02:00,77.0,77.0,29.89,West,262,2.0,6.0,100,99.99,,,-99.99,,2013-07-25 10:02:00,
2013-07-25 06:12:00,77.0,77.0,29.89,WSW,252,2.0,6.0,100,99.99,,,-99.99,,2013-07-25 10:12:00,
2013-07-25 07:02:00,78.0,78.0,29.91,West,266,4.0,6.0,100,99.99,,,-99.99,,2013-07-25 11:02:00,
2013-07-25 07:43:00,73.0,73.0,29.94,NW,318,5.0,13.0,100,99.99,,,-99.99,,2013-07-25 11:43:00,
2013-07-25 08:03:00,72.0,72.0,29.94,West,273,5.0,9.0,100,99.99,,,-99.99,,2013-07-25 12:03:00,
2013-07-25 08:45:00,73.0,73.0,29.95,North,0,0.0,0.0,100,99.99,,,-99.99,,2013-07-25 12:45:00,
2013-07-25 10:02:00,73.0,73.0,29.96,SSW,193,0.0,1.0,100,99.99,,,-99.99,,2013-07-25 14:02:00,
2013-07-25 10:43:00,75.0,75.0,29.98,WSW,253,0.0,4.0,100,99.99,,,-99.99,,2013-07-25 14:43:00,
2013-07-25 11:12:00,77.0,77.0,29.99,WSW,238,1.0,5.0,100,99.99,,,-99.99,,2013-07-25 15:12:00,
2013-07-25 11:44:00,79.0,79.0,30.00,West,271,4.0,7.0,100,99.99,,,-99.99,,2013-07-25 15:44:00,
2013-07-25 11:52:00,80.0,80.0,29.99,West,267,3.0,5.0,100,99.99,,,-99.99,,2013-07-25 15:52:00,
2013-07-25 12:33:00,83.0,82.0,29.99,West,259,3.0,6.0,96,99.99,,,-99.99,,2013-07-25 16:33:00,
2013-07-25 13:03:00,85.0,80.0,29.98,West,271,5.0,10.0,86,99.99,,,-99.99,,2013-07-25 17:03:00,
2013-07-25 14:02:00,89.0,72.0,29.97,West,276,9.0,14.0,57,99.99,,,-99.99,,2013-07-25 18:02:00,
2013-07-25 14:43:00,87.0,71.0,29.97,West,262,7.0,13.0,60,99.99,,,-99.99,,2013-07-25 18:43:00,
2013-07-25 15:33:00,87.0,69.0,29.96,WNW,300,7.0,12.0,55,99.99,,,-99.99,,2013-07-25 19:33:00,
2013-07-25 15:43:00,86.0,69.0,29.96,West,276,7.0,13.0,57,99.99,,,-99.99,,2013-07-25 19:43:00,
2013-07-25 16:32:00,87.0,69.0,29.96,WNW,294,5.0,9.0,55,99.99,,,-99.99,,2013-07-25 20:32:00,
2013-07-25 17:44:00,86.0,70.0,29.95,West,274,7.0,15.0,60,99.99,,,-99.99,,2013-07-25 21:44:00,
2013-07-25 17:52:00,85.0,69.0,29.95,WSW,257,6.0,13.0,59,99.99,,,-99.99,,2013-07-25 21:52:00,
2013-07-25 18:52:00,84.0,72.0,29.94,WSW,256,6.0,13.0,67,99.99,,,-99.99,,2013-07-25 22:52:00,
2013-07-25 19:32:00,84.0,74.0,29.95,West,260,5.0,9.0,72,99.99,,,-99.99,,2013-07-25 23:32:00,
2013-07-25 19:52:00,82.0,74.0,29.95,West,259,7.0,12.0,78,99.99,,,-99.99,,2013-07-25 23:52:00,
2013-07-25 20:02:00,82.0,75.0,29.95,West,259,5.0,8.0,80,99.99,,,-99.99,,2013-07-26 00:02:00,
2013-07-25 20:12:00,82.0,76.0,29.95,West,277,5.0,9.0,82,99.99,,,-99.99,,2013-07-26 00:12:00,
2013-07-25 20:33:00,81.0,75.0,29.95,West,278,5.0,10.0,81,99.99,,,-99.99,,2013-07-26 00:33:00,
2013-07-25 20:43:00,81.0,75.0,29.95,WSW,245,5.0,8.0,82,99.99,,,-99.99,,2013-07-26 00:43:00,
2013-07-25 20:52:00,81.0,75.0,29.96,WNW,284,5.0,8.0,83,99.99,,,-99.99,,2013-07-26 00:52:00,
2013-07-25 21:43:00,80.0,76.0,29.96,West,277,3.0,8.0,89,99.99,,,-99.99,,2013-07-26 01:43:00,
2013-07-25 22:43:00,79.0,78.0,29.97,NNE,13,3.0,8.0,97,99.99,,,-99.99,,2013-07-26 02:43:00,